This demonstration page uses our WeatherBlox Daily Observations layout. Learn more.

38.89511, -77.03637

Hourly Observations for September 5, 2017

Temp ( °F °C ) Dew Point ( °F °C ) Humidity (%) Winds ( mph kmh ) Pressure ( in mb ) Visibility ( mi km ) Precip ( " mm )
12:52 am 00:52 Mostly Clear 73 22.8 69 20.6 87 87 S 12 19 29.83 1010 10 16.09344 0 0
1:52 am 01:52 Partly Cloudy 73 22.8 67 19.4 81 81 SSW 8 13 29.85 1011 10 16.09344 0 0
2:52 am 02:52 Mostly Clear 72 22.2 67 19.4 84 84 SSW 7 11 29.85 1011 10 16.09344 0 0
3:52 am 03:52 Mostly Clear 72 22.2 67 19.4 84 84 S 8 13 29.83 1010 10 16.09344 0 0
4:52 am 04:52 Mostly Clear 71 21.7 66 18.9 84 84 S 7 11 29.83 1010 10 16.09344 0 0
5:52 am 05:52 Partly Cloudy 70 21.1 66 18.9 87 87 S 7 11 29.83 1010 10 16.09344 0 0
6:52 am 06:52 Partly Cloudy 70 21.1 67 19.4 90 90 S 10 17 29.83 1010 10 16.09344 0 0
7:52 am 07:52 Partly Cloudy 71 21.7 66 18.9 84 84 SSW 9 15 29.83 1010 10 16.09344 0 0
8:52 am 08:52 Mostly Cloudy 72 22.2 65 18.3 79 79 SSW 13 20 29.83 1010 10 16.09344 0 0
9:52 am 09:52 Mostly Cloudy 76 24.4 66 18.9 72 72 SSW 9 15 29.83 1010 10 16.09344 0 0
10:52 am 10:52 Mostly Cloudy 78 25.6 68 20 71 71 SSE 8 13 29.83 1010 10 16.09344 0 0
11:52 am 11:52 Mostly Cloudy 80 26.7 69 20.6 69 69 SSE 10 17 29.83 1010 10 16.09344 0 0
12:52 pm 12:52 Partly Cloudy 82 27.8 69 20.6 65 65 S 15 24 29.77 1008 10 16.09344 0 0
1:52 pm 13:52 Partly Cloudy 84 28.9 72 22.2 67 67 S 13 20 29.77 1008 10 16.09344 0 0
2:52 pm 14:52 Partly Cloudy 86 30 70 21.1 59 59 S 16 26 29.74 1007 10 16.09344 0 0
3:52 pm 15:52 Mostly Sunny 86 30 69 20.6 57 57 S 15 24 29.71 1006 10 16.09344 0 0
4:52 pm 16:52 Partly Cloudy 86 30 66 18.9 51 51 SSW 16 26 29.74 1007 10 16.09344 0 0
5:52 pm 17:52 Mostly Cloudy 81 27.2 65 18.3 58 58 N 16 26 29.77 1008 10 16.09344 0 0
6:06 pm 18:06 Cloudy 78 25.6 63 17.2 60 60 NNW 15 24 29.8 1009 10 16.09344 0 0
6:52 pm 18:52 Cloudy with Light Rain 74 23.3 65 18.3 74 74 NNW 18 30 29.83 1010 9 14.484096 0.001 0.001
6:54 pm 18:54 Cloudy with Light Thunderstorms 73 22.8 66 18.9 79 79 NNW 16 26 29.83 1010 9 14.484096 0.001 0.001
7:01 pm 19:01 Cloudy with Thunderstorms 72 22.2 67 19.4 84 84 NNW 17 28 29.83 1010 6 9.656064 0.02 0.508
7:18 pm 19:18 Cloudy with Light Rain 69 20.6 67 19.4 93 93 N 9 15 29.83 1010 7 11.265408 0.07 1.778
7:52 pm 19:52 Mostly Cloudy with Light Rain 70 21.1 67 19.4 90 90 Calm 29.83 1010 9 14.484096 0.07 1.778
8:52 pm 20:52 Mostly Cloudy 71 21.7 67 19.4 87 87 Calm 29.83 1010 10 16.09344 0.001 0.001
9:18 pm 21:18 Mostly Cloudy 71 21.7 68 20 90 90 SSE 3 6 29.85 1011 10 16.09344 0 0
9:52 pm 21:52 Partly Cloudy 70 21.1 68 20 93 93 SSW 5 7 29.83 1010 10 16.09344 0 0
10:52 pm 22:52 Cloudy with Mist and Fog 70 21.1 68 20 93 93 Calm 29.83 1010 6 9.656064 0 0
11:52 pm 23:52 Cloudy 71 21.7 68 20 90 90 Calm 29.8 1009 10 16.09344 0 0

Powered by AerisWeather